Probability
0 0 0 0 0 0 0 0 0 0 0 0 0 0 0 0 0 0 0 0 0 0 0 0 0 0 0 0 0 0 0 0 0 0 0 0 3 0
0 0 0 0 0 0 0 0 0 0 0 0 0 0 0 0 0 0 0 0 0 0 0 0 0 0 0 0 0 0 0 0 0 0 0 0 3 0
0 0 0 0 0 0 0 0 0 0 0 0 0 0 0 0 0 0 0 0 0 0 0 0 0 0 0 0 0 0 0 0 0 0 0 0 0 0
0 0 0 0 0 0 0 0 0 0 0 0 0 0 0 0 0 0 0 0 0 0 0 0 0 0 0 0 0 0 0 0 0 0 0 0 0 0
0 0 0 0 0 0 0 0 0 0 0 0 0 0 0 0 0 0 0 0 0 0 0 0 0 0 0 0 0 0 0 0 0 0 0 0 0 0
0 0 0 0 0 0 0 0 0 0 0 0 0 0 0 0 0 0 0 0 0 0 0 0 0 0 0 0 0 0 0 0 0 0 0 0 0 0
0 0 0 0 0 0 0 0 0 0 0 0 0 0 0 0 0 0 0 0 0 0 0 0 0 0 0 0 0 0 0 0 0 0 0 0 0 0
0 0 0 0 0 0 0 0 0 0 0 0 0 0 0 0 0 0 0 0 0 0 0 0 0 0 0 0 0 0 0 0 0 0 0 0 0 0
0 0 0 0 0 0 0 0 0 0 0 0 0 0 0 0 0 0 0 0 0 0 0 0 0 0 0 0 0 0 0 0 0 0 0 0 0 0
0 0 0 0 0 0 0 0 0 0 0 0 0 0 0 0 0 0 0 0 0 0 0 0 0 0 0 0 0 0 0 0 0 0 0 0 0 0
0 0 0 0 0 0 0 0 0 0 0 0 0 0 0 0 0 0 0 0 0 0 0 0 0 0 0 0 0 0 0 0 0 0 0 0 0 0
0 0 0 0 0 0 0 0 0 0 0 0 0 0 0 0 0 0 0 0 0 0 0 0 0 0 0 0 0 0 0 0 0 0 0 0 0 0
0 0 0 0 0 0 0 0 0 0 0 0 0 0 0 0 0 0 0 0 0 0 0 0 0 0 0 0 0 0 0 0 0 0 0 0 0 0
0 0 0 0 0 0 0 0 0 0 0 0 0 0 0 0 0 0 0 0 0 0 0 0 0 0 0 0 0 0 0 0 0 0 0 0 0 0
0 0 0 0 0 0 0 0 0 0 0 0 0 0 0 0 0 0 0 0 0 0 0 0 0 0 0 0 0 0 0 0 0 0 0 0 0 0
0 0 0 0 0 0 0 0 0 0 0 0 0 0 0 0 0 0 0 0 0 0 0 0 0 0 0 0 0 0 0 0 0 0 0 0 0 0
0 0 0 0 0 0 0 0 0 0 0 0 0 0 0 0 0 0 0 0 0 0 0 0 0 0 0 0 0 0 0 0 0 0 0 0 0 0
0 0 0 0 0 0 0 0 0 0 0 0 0 0 0 0 0 0 0 0 0 0 0 0 0 0 0 0 0 0 0 0 0 0 0 0 0 0
0 0 0 0 0 0 0 0 0 0 0 0 0 0 0 0 0 0 0 0 0 0 0 0 0 0 0 0 0 0 0 0 0 0 0 0 0 0
0 0 0 0 0 0 0 0 0 0 0 0 0 0 0 0 0 0 0 0 0 0 0 0 0 0 0 0 0 0 0 0 0 0 0 0 0 0
0 0 0 0 0 0 0 0 0 0 0 0 0 0 0 0 0 0 0 0 0 0 0 0 0 0 0 0 0 0 0 0 0 0 0 0 0 0
0 0 0 0 0 0 0 0 0 0 0 0 0 0 0 0 0 0 0 0 0 0 0 0 0 0 0 0 0 0 0 0 0 0 0 0 0 0
0 0 0 0 0 0 0 0 0 0 0 0 0 0 0 0 0 0 0 0 0 0 0 0 0 0 0 0 0 0 0 0 0 0 0 0 0 0
Height
5798 5802 5806 5809 5813 5816 5819 5822 5826 5829 5832 5835 5838 5841 5843 5845 5847 5849 5850 5851 5852 5853 5854 5854 5855 5855 5855 5855 5854 5854 5853 5852 5851 5850 5849 5848 5846 5844
5789 5793 5797 5800 5804 5807 5810 5813 5817 5821 5824 5828 5831 5833 5836 5838 5840 5842 5843 5845 5846 5847 5847 5848 5848 5848 5848 5847 5847 5846 5845 5845 5843 5842 5841 5839 5838 5836
5781 5785 5789 5793 5796 5799 5803 5806 5809 5813 5816 5819 5823 5825 5828 5831 5833 5834 5836 5837 5838 5839 5840 5841 5841 5840 5840 5840 5839 5838 5837 5837 5836 5834 5832 5831 5830 5828
5774 5778 5781 5785 5789 5792 5795 5798 5801 5805 5808 5812 5815 5818 5820 5823 5825 5827 5828 5830 5831 5832 5832 5833 5833 5833 5832 5832 5832 5831 5830 5829 5828 5826 5825 5823 5822 5820
5768 5772 5775 5779 5782 5786 5789 5792 5795 5798 5801 5804 5807 5810 5813 5815 5818 5820 5821 5822 5823 5824 5825 5825 5825 5825 5825 5824 5824 5823 5822 5821 5820 5819 5817 5816 5814 5813
5762 5766 5769 5772 5776 5779 5782 5785 5788 5791 5794 5798 5801 5803 5806 5808 5810 5812 5814 5815 5816 5817 5818 5818 5818 5818 5818 5817 5817 5815 5814 5813 5812 5811 5810 5809 5808 5806
5757 5760 5763 5766 5770 5773 5776 5779 5782 5785 5788 5791 5794 5797 5800 5802 5804 5806 5807 5808 5809 5810 5811 5811 5811 5811 5811 5810 5809 5808 5807 5806 5806 5805 5804 5802 5801 5799
5753 5756 5759 5762 5765 5768 5771 5774 5777 5780 5783 5786 5789 5791 5794 5796 5798 5800 5801 5802 5803 5805 5805 5806 5806 5805 5805 5804 5803 5801 5801 5800 5800 5799 5798 5796 5795 5793
5749 5752 5755 5758 5760 5763 5766 5769 5772 5775 5778 5781 5783 5786 5788 5790 5792 5794 5795 5797 5798 5799 5800 5800 5801 5800 5800 5799 5797 5796 5795 5795 5794 5793 5792 5791 5790 5788
5746 5749 5752 5755 5757 5760 5763 5766 5768 5771 5774 5776 5779 5781 5783 5785 5787 5789 5790 5792 5793 5794 5795 5796 5796 5796 5795 5795 5794 5792 5792 5791 5790 5789 5788 5787 5786 5784
5745 5748 5750 5753 5755 5758 5760 5763 5765 5767 5770 5772 5775 5777 5778 5780 5782 5785 5786 5788 5789 5790 5791 5792 5792 5792 5792 5792 5791 5790 5789 5787 5786 5786 5785 5784 5782 5781
5744 5746 5749 5751 5753 5756 5758 5760 5762 5764 5767 5769 5771 5773 5775 5777 5779 5782 5783 5785 5786 5787 5788 5789 5789 5789 5789 5789 5788 5787 5786 5785 5784 5783 5782 5781 5779 5778
5744 5746 5748 5750 5752 5754 5756 5758 5760 5762 5764 5767 5769 5771 5773 5775 5777 5779 5781 5782 5783 5784 5786 5786 5787 5787 5787 5787 5786 5785 5785 5784 5783 5782 5780 5779 5777 5776
5746 5747 5748 5750 5752 5754 5756 5757 5759 5761 5763 5766 5768 5769 5771 5773 5775 5776 5778 5779 5781 5782 5783 5784 5785 5785 5785 5785 5784 5784 5783 5782 5781 5780 5779 5778 5776 5774
5748 5749 5750 5752 5754 5755 5756 5758 5759 5761 5763 5765 5767 5769 5770 5772 5774 5775 5776 5778 5779 5780 5781 5782 5783 5783 5783 5783 5783 5783 5782 5781 5780 5779 5778 5776 5774 5772
5751 5752 5753 5754 5755 5756 5758 5759 5761 5762 5764 5766 5767 5769 5770 5771 5773 5774 5776 5777 5778 5779 5780 5781 5781 5782 5782 5782 5782 5781 5781 5780 5779 5778 5777 5775 5773 5772
5755 5755 5756 5757 5758 5759 5760 5761 5762 5764 5765 5766 5768 5769 5770 5771 5773 5774 5775 5776 5778 5778 5779 5780 5780 5781 5781 5781 5781 5780 5779 5778 5777 5776 5775 5774 5772 5771
5760 5760 5760 5760 5761 5762 5762 5763 5764 5765 5766 5767 5768 5769 5770 5772 5773 5774 5775 5776 5777 5778 5778 5779 5779 5780 5780 5780 5779 5779 5778 5777 5776 5775 5774 5773 5771 5770
5764 5763 5763 5763 5764 5764 5765 5765 5766 5767 5768 5768 5769 5770 5771 5772 5773 5774 5775 5776 5776 5777 5777 5778 5778 5778 5778 5778 5778 5777 5777 5776 5775 5774 5773 5771 5770 5768
5768 5767 5767 5766 5766 5767 5767 5767 5768 5768 5769 5769 5770 5770 5771 5772 5773 5774 5774 5775 5776 5776 5776 5777 5777 5777 5777 5777 5776 5776 5775 5774 5773 5772 5771 5770 5768 5766
5771 5770 5770 5769 5769 5769 5769 5769 5769 5770 5770 5770 5770 5771 5771 5772 5773 5773 5774 5774 5775 5775 5775 5775 5775 5775 5775 5775 5774 5774 5773 5772 5771 5770 5769 5767 5766 5764
5773 5773 5772 5771 5771 5771 5771 5771 5771 5771 5771 5771 5771 5771 5771 5772 5772 5773 5773 5774 5774 5774 5774 5774 5774 5773 5773 5773 5772 5772 5771 5770 5769 5767 5766 5765 5763 5761
5775 5774 5773 5773 5772 5772 5772 5772 5771 5771 5771 5771 5771 5771 5771 5771 5772 5772 5772 5772 5772 5772 5772 5772 5772 5771 5771 5770 5770 5769 5768 5767 5766 5765 5764 5762 5760 5758
Wind_Speed
35 35 35 34 34 33 33 33 34 34 35 34 33 33 31 30 30 29 29 28 28 29 29 29 29 29 29 30 30 31 31 32 32 33 33 34 34 34
36 36 35 34 33 32 32 32 33 34 35 35 34 34 33 32 31 31 30 31 30 30 31 31 31 31 30 31 32 32 32 32 32 33 34 35 35 35
33 33 32 31 31 31 31 31 32 33 33 34 34 34 33 32 32 31 31 31 30 30 30 31 32 31 31 32 32 32 32 32 32 33 33 33 34 34
30 30 30 29 29 30 30 30 30 31 32 32 33 33 33 33 32 31 31 31 31 30 30 31 32 31 31 31 32 32 32 33 32 32 31 31 32 32
26 27 28 28 28 28 29 29 29 30 31 31 30 30 30 31 30 30 30 30 29 28 28 29 29 30 30 30 30 31 32 31 31 31 31 30 30 29
23 24 25 26 27 27 27 27 27 28 28 29 29 28 27 27 28 27 27 27 26 25 25 26 26 27 28 28 28 29 30 29 28 29 29 28 27 27
19 21 22 23 24 25 25 24 24 25 25 25 26 25 25 25 25 26 25 24 25 24 24 24 24 24 25 25 26 26 26 26 26 26 26 25 25 25
16 18 19 20 21 21 20 20 20 21 21 22 23 23 23 22 23 23 23 22 23 22 22 21 21 21 21 22 22 21 21 22 22 21 21 21 20 20
14 16 17 17 17 17 18 18 18 19 19 19 19 20 20 20 20 20 20 19 19 19 19 19 19 18 19 19 18 17 17 17 18 18 17 17 17 17
11 13 14 15 15 15 16 15 16 17 18 18 18 18 19 19 18 17 17 17 17 17 17 17 17 16 15 14 14 14 14 14 14 13 13 13 13 14
8 10 11 12 12 13 14 14 14 15 16 16 15 15 15 15 15 15 15 15 15 14 14 14 13 12 11 10 10 10 10 10 10 10 10 11 12 12
7 8 10 10 10 11 12 12 12 13 13 13 13 13 13 13 14 14 14 14 14 14 13 12 10 9 9 8 8 7 7 7 7 8 8 9 11 11
6 7 9 9 9 9 10 10 10 11 11 11 11 11 11 11 12 13 13 13 13 12 11 10 9 8 7 7 6 5 5 5 6 6 7 8 9 10
8 8 9 8 8 8 9 9 9 9 10 10 10 10 10 9 9 10 11 11 11 11 10 9 8 7 6 5 4 4 4 4 5 6 7 8 9 9
9 10 10 10 9 9 9 9 9 9 10 9 9 9 9 9 9 9 9 9 10 9 8 8 7 6 5 4 4 3 3 4 5 5 6 7 8 8
10 10 10 10 9 8 8 8 9 9 9 9 9 9 8 8 8 8 8 8 7 7 7 7 6 5 4 4 4 4 4 4 5 5 6 7 7 8
11 11 11 10 10 10 9 8 8 8 8 9 8 8 7 7 7 7 7 7 7 6 6 5 5 5 4 4 4 4 4 4 5 5 6 6 6 7
12 11 10 10 9 9 8 8 8 8 8 7 7 7 7 6 6 7 7 6 6 6 5 5 5 4 4 4 4 4 4 4 5 5 5 6 6 7
11 10 9 9 8 8 7 7 7 7 7 6 6 6 6 6 6 6 6 6 6 5 5 5 4 4 4 4 4 4 5 5 5 5 6 6 7 8
9 9 9 8 8 7 7 7 6 6 5 5 5 5 5 5 6 6 5 5 5 4 4 4 4 4 4 4 4 5 5 5 5 6 7 8 9 9
8 7 7 7 7 6 6 6 5 5 4 4 4 4 5 5 5 5 4 4 4 4 4 4 4 4 4 5 5 5 6 6 7 8 9 9 10 10
6 5 5 5 4 4 4 4 4 4 3 3 3 3 4 4 5 5 4 4 4 4 4 4 5 5 5 6 6 7 8 8 9 10 10 11 11 12
3 3 3 3 2 2 2 2 2 2 2 2 3 3 4 4 4 4 4 4 5 5 5 6 6 6 7 7 8 9 9 10 11 11 12 12 13 13
Wind_Direction
229 231 233 234 238 237 236 236 236 236 236 237 239 238 237 241 244 246 249 251 255 258 262 265 268 270 273 275 276 277 279 279 280 281 283 284 285 285
231 232 232 234 235 235 235 236 234 234 235 236 238 239 238 240 243 246 249 253 256 259 262 265 268 270 272 274 276 278 278 280 280 281 282 284 283 283
229 231 233 232 232 232 232 233 233 233 234 236 239 240 241 244 245 248 251 255 255 259 263 266 268 270 272 274 276 277 278 280 281 282 284 284 284 283
229 231 234 233 233 232 232 234 234 234 235 238 240 243 244 245 247 251 253 255 258 260 263 266 269 268 270 272 274 276 277 278 280 282 283 284 284 283
230 230 231 233 232 233 233 233 234 234 235 238 239 241 244 245 248 251 253 256 259 262 263 265 266 267 269 271 273 275 275 276 278 280 282 282 284 284
227 227 229 229 229 231 233 234 233 234 234 236 237 240 244 246 248 251 254 257 258 260 263 265 268 268 268 270 272 274 275 276 277 279 281 281 283 284
227 225 229 230 228 229 231 231 231 232 235 237 237 239 242 245 247 251 255 257 256 258 262 264 267 268 269 272 274 274 274 274 275 276 278 280 283 285
226 225 228 230 230 230 230 230 231 233 235 237 239 241 242 245 248 250 252 254 255 256 259 262 265 268 270 272 274 274 273 274 275 277 281 285 288 290
223 223 224 226 227 230 232 233 233 231 231 234 236 239 241 244 247 249 249 250 251 253 254 259 261 264 268 270 271 275 276 277 278 279 283 287 290 292
211 214 214 216 221 224 224 228 230 228 230 232 235 237 238 239 240 241 239 239 242 247 250 253 257 262 264 267 271 275 277 279 280 281 285 289 293 297
201 201 205 212 214 213 215 220 224 226 228 228 230 230 230 229 228 230 230 233 237 242 246 248 251 254 258 264 272 279 282 283 284 286 291 294 297 301
182 190 195 199 201 206 205 210 215 218 219 219 219 219 220 220 218 221 225 229 234 237 239 241 244 249 259 266 276 282 285 287 290 294 298 303 306 307
155 163 171 179 185 189 192 197 200 203 204 205 206 208 209 212 218 220 221 224 225 228 231 237 242 249 259 263 268 275 286 290 296 302 308 314 318 318
127 138 146 153 158 166 171 175 176 178 182 188 193 198 201 206 211 212 212 217 221 225 230 239 244 248 251 254 261 276 286 294 301 308 315 321 323 324
106 118 129 135 137 144 150 158 165 168 173 181 186 189 190 193 198 199 201 209 214 218 223 227 231 234 235 244 259 276 287 295 303 311 318 324 329 330
97 109 118 127 129 131 138 146 150 156 163 167 172 176 178 182 187 192 195 197 200 204 210 215 217 221 229 247 260 269 282 298 308 314 319 325 331 337
92 103 109 114 121 123 128 136 143 148 156 160 162 166 172 176 184 190 191 191 194 199 203 207 209 218 231 244 259 272 287 299 308 316 321 326 332 337
91 98 103 108 116 122 126 131 136 142 150 155 158 162 169 175 177 179 181 186 194 201 205 209 215 225 236 250 262 272 284 295 306 314 320 326 328 329
86 90 95 103 111 118 125 132 137 142 148 153 157 161 165 167 168 173 180 187 194 200 205 211 221 233 245 256 265 275 285 293 301 307 310 314 318 322
80 85 88 92 100 108 115 122 128 132 139 147 153 162 167 170 172 175 181 187 194 203 212 221 230 240 250 260 267 276 284 291 296 301 305 309 314 318
75 81 87 90 96 104 111 116 123 130 137 145 154 164 173 178 182 186 189 193 199 210 222 229 237 246 256 265 271 276 282 288 293 298 302 306 310 314
71 80 87 91 98 106 116 124 129 135 145 156 164 171 177 184 192 199 204 210 219 229 236 244 252 261 267 271 276 280 284 289 293 296 300 305 309 313
51 63 74 85 99 120 135 150 158 163 170 177 184 188 192 198 205 214 223 231 238 245 251 257 264 270 274 276 279 282 285 288 291 293 297 302 307 311